#timestamp,LO_Frequency,Hit,StdDev 
1633676415.8,286047002.8,N
1633676435.6,286047002.1,N
1633676455.4,286047002.7,N
1633676475.3,286047000.0,N
1633676495.1,286047000.2,N
1633676515.8,286047000.4,N
1633676535.7,286047000.5,N
1633676555.5,286047000.9,N
1633676575.4,286046999.8,N
1633676595.2,286046999.9,N
1633676615.0,286047002.8,N
1633676615.9,286047002.8,N
1633676635.8,286047000.1,N
1633676655.6,286047002.6,N
1633676675.4,286047002.5,N
1633676695.3,286046999.8,N
1633676715.1,286047002.2,N
1633676735.9,286047002.7,N
1633676755.7,286047002.0,N
1633676775.5,286047002.6,N
1633676795.4,286047000.2,N
1633676815.2,286047000.0,N
1633676835.1,286046999.0,N
1633676836.0,286046999.0,N
1633676855.8,286046999.5,N
1633676875.6,286046999.5,N
1633676895.5,286046997.5,N
1633676915.3,286046997.9,N
1633676935.2,286046995.1,Y
1633676955.9,286046995.7,P
1633676975.7,286046994.9,N
1633676995.6,286046997.2,N
1633677015.4,286046998.9,N
1633677035.2,286046999.2,N
1633677055.1,286046996.5,N
1633677056.0,286046996.5,N
1633677075.8,286046998.6,N
1633677095.7,286046999.0,N
1633677115.5,286047000.7,N
1633677135.3,286047001.2,N
1633677155.2,286046998.5,N
1633677175.0,286046996.8,N
1633677175.9,286046996.8,N
1633677195.8,286046997.2,N
1633677215.6,286046997.3,N
1633677235.4,286046999.3,N
1633677255.3,286047001.1,N
1633677275.1,286047000.2,N
1633677295.8,286047002.2,N
1633677315.7,286047004.0,N
1633677335.5,286047001.4,N
1633677355.4,286047000.1,N
1633677375.2,286047000.8,N
1633677395.0,286047001.2,N
1633677395.9,286047001.2,N
1633677415.8,286046998.2,N
1633677435.6,286046998.9,N
1633677455.4,286046996.5,N
1633677475.3,286046998.9,N
1633677495.1,286047001.2,N
1633677515.9,286046998.9,N
1633677535.7,286046998.2,N
1633677555.5,286047001.1,N
1633677575.4,286046996.8,N
1633677595.2,286046996.8,N
1633677615.0,286046995.4,N
1633677615.9,286046995.4,N
1633677635.8,286046997.4,N
1633677655.6,286046997.8,N
1633677675.5,286046997.5,N
1633677695.3,286046995.3,N
1633677715.2,286046997.8,N
1633677735.9,286046995.0,N
1633677755.7,286046998.0,N
1633677775.6,286046996.5,N
1633677795.4,286046998.8,N
1633677815.2,286047000.8,N
1633677835.1,286046998.2,N
1633677836.0,286046998.2,N
1633677855.8,286047000.9,N
1633677875.7,286046999.9,N
1633677895.5,286047000.9,N
1633677915.3,286047001.2,N
1633677935.2,286047001.1,N
1633677955.0,286047000.8,N
1633677955.9,286047000.8,N
1633677975.8,286047000.4,N
1633677995.6,286047000.2,N
1633678015.4,286046999.9,N
1633678035.3,286047000.0,N
1633678055.1,286047002.8,N
1633678075.8,286047000.3,N
1633678095.7,286046999.7,N
1633678115.5,286047001.0,N
1633678135.4,286047000.3,N
1633678155.2,286047000.3,N
1633678175.0,286047000.4,N
1633678175.9,286047000.4,N
1633678195.8,286047000.4,N
1633678215.6,286047000.4,N
1633678235.4,286047000.2,N
1633678255.3,286046999.9,N
1633678275.1,286047004.1,N
1633678295.9,286047005.8,Y
1633678315.7,286047005.0,P
1633678335.5,286047006.4,N
1633678355.4,286047006.6,N
1633678375.2,286047009.1,Y
1633678395.1,286047003.7,P
1633678396.0,286047003.7,P
1633678415.8,286047001.3,P
1633678435.6,286047002.6,N
1633678455.5,286046999.8,N
1633678475.3,286047000.7,N
1633678495.2,286046998.3,N
1633678515.9,286046998.2,N
1633678535.7,286047001.0,N
1633678555.6,286046998.8,N
1633678575.4,286046999.1,N
1633678595.2,286046998.8,N
1633678615.1,286047001.2,N
1633678616.0,286047001.2,N
1633678635.8,286047000.6,N
1633678655.7,286046999.9,N
1633678675.5,286047001.7,N
1633678695.3,286047004.2,N
1633678715.2,286047003.1,N
1633678735.0,286047003.5,N
1633678735.9,286047003.5,N
1633678755.8,286047003.6,N
1633678775.6,286047011.9,Y
1633678795.4,286047000.5,P
1633678815.3,286047000.3,N
1633678835.1,286046999.7,N
1633678855.9,286047001.0,N
1633678875.7,286046998.1,Y
1633678895.5,286047000.8,P
1633678915.4,286046998.9,P
1633678935.2,286046999.6,N
1633678955.0,286046999.6,N
1633678956.0,286046999.6,N
1633678975.8,286046997.1,Y
1633678995.6,286046997.5,P
1633679015.5,286046997.7,N
1633679035.3,286046995.5,P
1633679055.2,286046995.7,N
1633679075.9,286046995.5,N
1633679095.7,286046997.0,N
1633679115.6,286046999.5,N
1633679135.4,286046998.1,N
1633679155.2,286047000.3,N
1633679175.1,286047002.0,N
1633679176.0,286047002.0,N
1633679195.8,286047004.4,N
1633679215.7,286047004.0,N
1633679235.5,286047001.4,N
1633679255.3,286047001.6,N
1633679275.2,286046999.8,N
1633679295.0,286046999.8,N
1633679295.9,286046999.8,N
1633679315.8,286047000.9,N
1633679335.6,286047000.8,N
1633679355.4,286047000.4,N
1633679375.3,286046998.1,N
1633679395.1,286047002.5,N
1633679415.8,286047001.5,N
1633679435.7,286047001.5,N
1633679455.5,286047005.7,N
1633679475.4,286047004.7,N
1633679495.2,286047006.9,N
1633679515.0,286047009.1,Y
1633679515.9,286047009.1,P
1633679535.8,286047006.4,N
1633679555.6,286047008.8,N
1633679575.5,286047009.2,N
1633679595.3,286047004.5,N
1633679615.1,286047003.0,N
1633679635.9,286047001.6,N
1633679655.7,286047002.0,N
1633679675.6,286047002.1,N
1633679695.4,286047001.6,N
1633679715.2,286047005.3,N
1633679735.1,286047009.1,N
1633679736.0,286047009.1,N
1633679755.8,286047010.5,Y
1633679775.7,286047004.6,P
1633679795.5,286047006.6,P
1633679815.3,286047007.7,P
1633679835.2,286047010.4,Y
1633679855.0,286047001.4,P
1633679855.9,286047001.4,N
1633679875.7,286047003.5,N
1633679895.6,286047007.0,Y
1633679915.4,286047004.1,P
1633679935.3,286047006.0,P
1633679955.1,286047003.3,N
1633679975.8,286047004.1,Y
1633679995.7,286047001.2,P
